Regional Weather Roundup
Issued by NWS

Home | Current Version | Previous Version | Graphics & Text | Print | Product List | Glossary On
Versions: 1 2 3 4 5 6 7 8 9 10 11 12 13 14 15 16 17 18 19 20 21 22 23 24 25 26 27 28 29 30 31 32 33 34 35 36 37 38 39 40 41 42 43 44 45 46 47 48 49 50
000
ASUS43 KBIS 020320
RWRND

NORTH DAKOTA REGIONAL WEATHER ROUNDUP
NATIONAL WEATHER SERVICE BISMARCK ND
900 PM CST SUN MAR 01 2015

NOTE: "FAIR" INDICATES FEW OR NO CLOUDS BELOW 12,000 FEET WITH NO
SIGNIFICANT WEATHER AND/OR OBSTRUCTIONS TO VISIBILITY.


NDZ001>003-009>011-017-020400-
NORTHWEST NORTH DAKOTA

CITY           SKY/WX    TMP DP  RH WIND       PRES   REMARKS
WILLISTON      PTCLDY     5  -1  76 CALM      30.27F
MINOT          CLEAR     14   6  70 SW9       30.29S WCI   2
MINOT AFB      CLEAR      7   3  84 W10       30.28F WCI  -8
$$

NDZ018>021-031>035-040>046-020400-
SOUTHWEST NORTH DAKOTA

CITY           SKY/WX    TMP DP  RH WIND       PRES   REMARKS
BISMARCK       CLEAR      6   2  83 VRB5      30.36S WCI  -3
DICKINSON      CLEAR      8   5  87 S7        30.26S WCI  -3
GARRISON         N/A      8   4  83 W5        30.31R WCI   0
HETTINGER ARPT CLEAR      7   1  76 CALM      30.30S
$$

NDZ004>008-012>016-024-026-027-054-020400-
NORTHEAST NORTH DAKOTA

CITY           SKY/WX    TMP DP  RH WIND       PRES   REMARKS
GRAND FORKS    PTCLDY    10   4  76 W8        30.32S WCI  -2
GRND FRKS AFB  PTCLDY    11   5  74 W7        30.32S WCI   1
DEVILS LAKE    CLEAR      7   0  72 W10       30.30R WCI  -8
$$

NDZ022-023-025-028>030-036>039-047>053-020400-
SOUTHEAST NORTH DAKOTA

CITY           SKY/WX    TMP DP  RH WIND       PRES   REMARKS
FARGO          CLEAR      9   3  77 W7        30.37R WCI  -2
JAMESTOWN      CLEAR      9   1  70 W7        30.34S WCI  -2
$$




USA.gov is the U.S. government's official web portal to all federal, state and local government web resources and services.